[[{"header":{"parameterUnit":"m.s-1","parameterCategory":1,"la1":30.2992,"la2":30.254,"lo1":-89.0895,"lo2":-89.0443,"dy":0.0025,"dx":0.0025,"nx":19,"ny":19,"refTime":"2026-04-23T03:00:00:Z","depth":0,"parameterNumber":2,"parameterNumberName":"U-component_of_WINDS"},"data":[0,0,0,-2.9855,-2.9856,-2.9902,-2.9902,-2.9966,-2.9967,0,0,0,0,0,0,0,0,0,0,0,-2.9845,-2.9845,-2.9855,-2.9856,-2.9902,-2.9902,-2.9966,-2.9967,0,0,0,0,0,0,0,0,0,0,0,-2.9844,-2.9845,-2.9846,-2.9856,-2.9902,-2.9902,-2.9966,-2.993,0,0,0,0,0,0,0,0,0,0,-2.9884,-2.9877,-2.9845,-2.9846,-2.9857,-2.9902,-2.9902,-2.9928,-2.9932,-2.9948,0,-2.9963,0,-2.9966,-2.9972,-2.9972,0,0,0,-2.9854,-2.9874,-2.9884,-2.9846,-2.9857,-2.9902,-2.9881,-2.993,-2.9935,-2.9954,-2.9964,-2.9966,-2.9967,-2.9972,-2.9972,-3.0072,-3.0073,0,0,-2.9851,-2.9854,-2.988,-2.9887,-2.988,-2.9879,-2.9882,-2.9933,-2.9944,-2.9964,-2.9967,-2.9968,-2.9973,-2.9973,-3.0072,-3.0072,0,0,0,-2.9846,-2.9853,-2.9861,-2.9884,-2.9892,-2.9881,-2.9884,-2.9942,-2.9944,-2.9968,-2.9969,-2.9973,-2.9974,-3.0071,-3.0072,-3.0101,0,0,0,-2.9844,-2.9849,-2.986,-2.9862,-2.9891,-2.9917,-2.9892,-2.9941,-2.9946,-2.9969,-2.9973,-2.9974,-3.007,-3.0071,-3.0099,-3.0114,0,0,0,-2.9841,-2.9849,-2.9857,-2.9862,-2.9882,-2.9916,-2.9922,-2.9942,-2.9947,-2.9972,-2.9975,-3.007,-3.0071,-3.0097,-3.0111,-3.014,0,0,0,-2.9838,-2.9883,-2.9857,-2.9908,-2.9882,-2.9935,-2.9921,-2.9961,-2.9986,-2.9973,-3.007,-3.0072,-3.0097,-3.0109,-3.0138,-3.0164,-3.0175,0,0,-2.9896,-2.989,-2.992,-2.9898,-2.9956,-2.9928,-2.9991,-3.0011,-3.0012,-3.0052,-3.0055,-3.01,-3.0111,-3.014,-3.0242,-3.0251,0,0,0,-2.9939,-2.9961,-2.9976,-2.9999,-3.0016,-3.0032,-3.0042,-3.005,-3.0084,-3.0033,-3.0119,-3.0126,-3.0143,-3.0155,-3.0162,-3.0176,-3.0078,-3.0078,-3.0078,-3.0025,-3.0023,-3.0072,-3.0075,-3.0099,-3.011,-3.0129,-3.0141,-3.0133,-3.0153,-3.0164,-3.0227,-3.0241,-3.0246,-3.0261,-3.018,-3.018,-3.018,-3.018,-3.0109,-3.0138,-3.0126,-3.0169,-3.0167,-3.0203,-3.0217,-3.0209,-3.0243,-3.0218,-3.0233,-3.0203,-3.0256,-3.0269,-3.0182,-3.0182,-3.0182,-3.0181,-3.0181,-3.0163,-3.0176,-3.0185,-3.022,-3.0247,-3.025,-3.0283,-3.0281,-3.0279,-3.0293,-3.0304,-3.0304,-3.0301,-3.0299,-3.03,-3.03,-3.03,-3.03,-3.03,-3.0214,-3.0223,-3.025,-3.0273,-3.0288,-3.0308,-3.0321,-3.0336,-3.0352,-3.0348,-3.0348,-3.0337,-3.0263,-3.0243,-3.0303,-3.0303,-3.0302,-3.0302,-3.0302,-3.0295,-3.0277,-3.0319,-3.0334,-3.0361,-3.0388,-3.0385,-3.0417,-3.0429,-3.0445,-3.0432,-3.0379,-3.0372,-3.0366,-3.0349,-3.0433,-3.0433,-3.0433,-3.0433,-3.0339,-3.0336,-3.0379,-3.0403,-3.0427,-3.0429,-3.0478,-3.0489,-3.0498,-3.0506,-3.0494,-3.0473,-3.0467,-3.0464,-3.0455,-3.044,-3.0545,-3.0545,-3.0545,-3.0388,-3.0388,-3.0428,-3.0436,-3.0457,-3.0476,-3.0521,-3.055,-3.0557,-3.055,-3.0512,-3.0507,-3.0473,-3.0462,-3.0451,-3.0438,-3.0409,0,0]},{"header":{"parameterUnit":"m.s-1","parameterCategory":1,"la1":30.2992,"la2":30.254,"lo1":-89.0895,"lo2":-89.0443,"dy":0.0025,"dx":0.0025,"nx":19,"ny":19,"refTime":"2026-04-23T03:00:00:Z","depth":0,"parameterNumber":3,"parameterNumberName":"V-component_of_WINDS"},"data":[0,0,0,5.3949,5.395,5.3952,5.3952,5.3963,5.3963,0,0,0,0,0,0,0,0,0,0,0,5.3953,5.3953,5.3949,5.395,5.3952,5.3952,5.3963,5.3963,0,0,0,0,0,0,0,0,0,0,0,5.3953,5.3953,5.3954,5.395,5.3952,5.3952,5.3963,5.3958,0,0,0,0,0,0,0,0,0,0,5.3954,5.3962,5.3953,5.3954,5.395,5.3952,5.3952,5.3958,5.3958,5.3965,0,5.3972,0,5.3968,5.3964,5.3964,0,0,0,5.3946,5.3962,5.3958,5.3954,5.395,5.3952,5.395,5.3958,5.3959,5.3966,5.3972,5.3972,5.3968,5.3964,5.3964,5.4014,5.4014,0,0,5.3946,5.3956,5.3958,5.3959,5.3959,5.395,5.395,5.3958,5.3966,5.3972,5.3972,5.3968,5.3964,5.3965,5.4013,5.4014,0,0,0,5.3948,5.3956,5.3952,5.3959,5.3959,5.395,5.395,5.3965,5.3963,5.3972,5.3968,5.3964,5.3965,5.4013,5.4014,5.4044,0,0,0,5.3948,5.3957,5.3952,5.3958,5.3959,5.3962,5.3957,5.3963,5.3963,5.3968,5.3964,5.3965,5.4013,5.4013,5.4042,5.4056,0,0,0,5.3951,5.3957,5.3959,5.3959,5.396,5.3962,5.396,5.3962,5.3961,5.3964,5.3965,5.4012,5.4013,5.404,5.4054,5.4073,0,0,0,5.3958,5.3985,5.396,5.3988,5.396,5.398,5.396,5.3973,5.398,5.3965,5.4013,5.4014,5.404,5.4052,5.4072,5.4093,5.4102,0,0,5.3998,5.399,5.4006,5.3984,5.401,5.3979,5.4009,5.4005,5.3996,5.4009,5.401,5.4042,5.4053,5.4073,5.4148,5.4156,0,0,0,5.4022,5.4034,5.4039,5.4045,5.4043,5.4043,5.4033,5.4032,5.4042,5.4005,5.4054,5.406,5.4071,5.4081,5.4087,5.4097,5.4018,5.4018,5.4018,5.4093,5.408,5.4106,5.4094,5.4101,5.4091,5.4096,5.4092,5.4077,5.4089,5.4093,5.414,5.4152,5.4156,5.4166,5.4102,5.4102,5.4102,5.4102,5.4151,5.4166,5.4146,5.4164,5.415,5.4165,5.4157,5.4146,5.4158,5.4136,5.4145,5.4123,5.4165,5.4173,5.4104,5.4104,5.4103,5.4103,5.4103,5.4197,5.4202,5.42,5.4209,5.4218,5.4204,5.4218,5.4204,5.4192,5.4201,5.4205,5.4204,5.4203,5.4203,5.4203,5.4204,5.4204,5.4204,5.4204,5.4246,5.4243,5.4256,5.4257,5.426,5.4262,5.4253,5.4255,5.4255,5.4245,5.4245,5.4229,5.4171,5.4157,5.4207,5.4206,5.4206,5.4206,5.4205,5.4313,5.4296,5.4316,5.4319,5.4319,5.4329,5.4311,5.4319,5.4319,5.4326,5.4308,5.4267,5.4258,5.4253,5.4242,5.431,5.431,5.431,5.431,5.4353,5.4347,5.4365,5.4371,5.4376,5.4362,5.4386,5.4379,5.437,5.4369,5.4357,5.4341,5.4336,5.433,5.4323,5.4313,5.4397,5.4397,5.4398,5.4394,5.4388,5.4411,5.4401,5.44,5.44,5.4422,5.4431,5.4415,5.4401,5.4369,5.4365,5.4339,5.433,5.4316,5.4306,5.4286,0,0]}]]